Weather History for Key West NAF, FL

Change the Weather History Date:

Saturday, February 16, 2013

  Actual Average Record
Temperature  
Mean Temperature 68 °F -  
Max Temperature 73 °F 76 °F 83 °F (1965)
Min Temperature 64 °F 67 °F 53 °F (1991)
Cooling Degree Days 4    
Growing Degree Days 18 (Base 50)    
Moisture  
Dew Point 61 °F    
Average Humidity 76    
Maximum Humidity 94    
Minimum Humidity 56    
Precipitation  
Precipitation 0.02 in - - ()
Sea Level Pressure  
Sea Level Pressure 29.97 in    
Wind  
Wind Speed 10 mph (North)    
Max Wind Speed 23 mph    
Max Gust Speed 31 mph    
Visibility 10 miles    
Events Rain    
Averages and records for this station are not official NWS values.
T = Trace of Precipitation, MM = Missing Value Source: NWS Daily Summary

Daily Weather History Graph

Daily Weather History Graph

Search for Another Location

Airport:

Trip Planner

Search our weather history database for the weather conditions in past years. The results will help you decide how hot, cold, wet, or windy it might be!

Date:

Astronomy

Feb. 16, 2013 Rise Set
Actual Time 6:59 AM EST 6:22 PM EST
Civil Twilight 6:36 AM EST 6:45 PM EST
Nautical Twilight 6:09 AM EST 7:12 PM EST
Astronomical Twilight 5:43 AM EST 7:38 PM EST
Moon 10:57 AM EST (2/16) No Moon Set
Length of Visible Light 12h 08m
Length of Day
11h 22m
Waxing Crescent, 39% of the Moon is Illuminated
Feb 16
Waxing Crescent
Feb 17
First Quarter
Feb 25
Full
Mar 4
Last Quarter
Mar 11
New

Hourly Weather History & Observations

Time (EST) Temp. Dew Point Humidity Pressure Visibility Wind Dir Wind Speed Gust Speed Precip Events Conditions
12:50 AM 69.8 °F 68.0 °F 94% 29.93 in 10.0 mi NNE 5.8 mph - 0.01 in Rain Light Rain
12:53 AM 70.0 °F 68.0 °F 93% 29.93 in 10.0 mi NNE 4.6 mph - 0.01 in Rain Light Rain
1:01 AM 69.8 °F 68.0 °F 94% 29.93 in 10.0 mi NNE 4.6 mph - 0.00 in Rain Light Rain
1:10 AM 69.8 °F 68.0 °F 94% 29.93 in 10.0 mi NNE 5.8 mph - 0.00 in Rain Light Rain
1:17 AM 69.8 °F 68.0 °F 94% 29.92 in 10.0 mi NNE 4.6 mph - 0.00 in Rain Light Rain
1:44 AM 69.8 °F 68.0 °F 94% 29.91 in 10.0 mi NNE 8.1 mph - 0.01 in Rain Light Rain
1:53 AM 70.0 °F 68.0 °F 93% 29.91 in 10.0 mi North 5.8 mph - 0.01 in Rain Light Rain
2:08 AM 69.8 °F 68.0 °F 94% 29.91 in 10.0 mi North 6.9 mph - 0.00 in Rain Light Rain
2:43 AM 69.8 °F 66.2 °F 88% 29.91 in 10.0 mi North 5.8 mph - 0.00 in Rain Light Rain
2:53 AM 70.0 °F 66.9 °F 90% 29.90 in 10.0 mi North 10.4 mph - 0.00 in Rain Light Rain
3:44 AM 69.8 °F 64.4 °F 83% 29.91 in 10.0 mi North 12.7 mph - 0.00 in Rain Light Rain
3:53 AM 69.1 °F 63.0 °F 81% 29.91 in 10.0 mi North 9.2 mph - 0.00 in Rain Light Rain
4:53 AM 69.1 °F 64.9 °F 87% 29.90 in 10.0 mi North 10.4 mph - 0.00 in Rain Light Rain
5:34 AM 69.8 °F 64.4 °F 83% 29.91 in 10.0 mi North 11.5 mph - 0.00 in Rain Light Rain
5:53 AM 69.1 °F 64.9 °F 87% 29.91 in 10.0 mi North 8.1 mph - 0.00 in Rain Light Rain
6:06 AM 69.8 °F 64.4 °F 83% 29.92 in 10.0 mi North 11.5 mph - 0.00 in   Overcast
6:53 AM 69.1 °F 63.0 °F 81% 29.94 in 10.0 mi North 12.7 mph - 0.00 in   Overcast
7:53 AM 69.1 °F 62.1 °F 78% 29.94 in 10.0 mi North 9.2 mph - N/A   Overcast
8:53 AM 70.0 °F 62.1 °F 76% 29.96 in 10.0 mi North 11.5 mph - N/A   Overcast
9:53 AM 72.0 °F 62.1 °F 71% 29.98 in 10.0 mi NNW 13.8 mph - N/A   Mostly Cloudy
10:53 AM 73.0 °F 61.0 °F 66% 30.00 in 10.0 mi NNW 16.1 mph 21.9 mph N/A   Mostly Cloudy
11:53 AM 73.0 °F 59.0 °F 61% 30.00 in 10.0 mi NNW 18.4 mph 25.3 mph N/A   Mostly Cloudy
12:53 PM 70.0 °F 55.9 °F 61% 30.00 in 10.0 mi NNW 18.4 mph 26.5 mph N/A   Mostly Cloudy
1:53 PM 69.1 °F 55.9 °F 63% 29.99 in 10.0 mi NW 17.3 mph 25.3 mph N/A   Overcast
2:53 PM 70.0 °F 55.9 °F 61% 29.99 in 10.0 mi WNW 21.9 mph 29.9 mph N/A   Overcast
3:53 PM 70.0 °F 54.0 °F 57% 29.99 in 10.0 mi NW 19.6 mph 28.8 mph N/A   Mostly Cloudy
4:53 PM 69.1 °F 54.0 °F 58% 30.01 in 10.0 mi NW 21.9 mph 31.1 mph N/A   Mostly Cloudy
5:53 PM 68.0 °F 52.0 °F 56% 30.01 in 10.0 mi NW 17.3 mph 31.1 mph N/A   Mostly Cloudy
6:53 PM 68.0 °F 54.0 °F 61% 30.02 in 10.0 mi NW 21.9 mph 28.8 mph N/A   Mostly Cloudy
7:53 PM 66.9 °F 55.9 °F 68% 30.05 in 10.0 mi NNW 23.0 mph 28.8 mph N/A   Mostly Cloudy
8:53 PM 66.0 °F 55.0 °F 68% 30.08 in 10.0 mi NNW 21.9 mph 28.8 mph N/A   Mostly Cloudy
9:53 PM 64.9 °F 53.1 °F 65% 30.09 in 10.0 mi NW 20.7 mph 28.8 mph N/A   Scattered Clouds
10:53 PM 66.0 °F 51.1 °F 59% 30.10 in 10.0 mi NNW 23.0 mph 28.8 mph N/A   Mostly Cloudy
11:53 PM 64.9 °F 50.0 °F 58% 30.10 in 10.0 mi NNW 18.4 mph 26.5 mph N/A   Partly Cloudy